Regional Weather Roundup
Issued by NWS

Home | Current Version | Previous Version | Graphics & Text | Print | Product List | Glossary Off
Versions: 1 2 3 4 5 6 7 8 9 10 11 12 13 14 15 16 17 18 19 20 21 22 23 24 25 26 27 28 29 30 31 32 33 34 35 36 37 38 39 40 41 42 43 44 45 46 47 48 49 50

000
ASUS43 KLSX 231107
RWRMO

WEATHER SUMMARY FOR MISSOURI
NATIONAL WEATHER SERVICE SPRINGFIELD MO
600 AM CDT SAT SEP 23 2017

NOTE: "FAIR" INDICATES FEW OR NO CLOUDS BELOW 12,000 FEET WITH NO
       SIGNIFICANT WEATHER AND/OR OBSTRUCTIONS TO VISIBILITY.
       CURRENT SKY AND/OR WEATHER CONDITIONS ARE NOT AVAILABLE FOR
       CHILLICOTHE AND FARMINGTON.

MOZ001>031-035>038-043-044-053-054-231200-
...NORTHERN AND WESTERN MISSOURI...

CITY           SKY/WX    TMP DP  RH WIND       PRES   REMARKS
KANSAS CTY INT CLEAR     70  67  90 S8        29.98R
KANSAS C DTWN  CLEAR     74  68  81 SW6       29.97S
LEE`S SUMMIT   CLEAR     73  68  84 S8        30.00R
ST JOSEPH      PTCLDY    70  68  93 S7        29.97R
CHILLICOTHE      N/A     67  67 100 CALM      30.00R
KIRKSVILLE     CLEAR     68  64  87 S3        30.02R

$$
MOZ066>068-077>081-088>096-101>105-231200-
...SOUTHWEST MISSOURI...

CITY           SKY/WX    TMP DP  RH WIND       PRES   REMARKS
SPRINGFIELD    CLEAR     68  66  93 S3        30.02R
JOPLIN         CLEAR     70  68  93 S6        30.00R
BRANSON          N/A     68  64  88 CALM      30.04R

$$
MOZ032>034-039>042-045>050-055>058-069>072-231200-
...CENTRAL MISSOURI...

CITY           SKY/WX    TMP DP  RH WIND       PRES   REMARKS
COLUMBIA       CLEAR     70  66  87 SE7       30.02R
JEFFERSON CITY CLEAR     66  63  90 CALM      30.01R
ROLLA          CLEAR     67  65  93 S6        30.05R
SEDALIA        CLEAR     72  68  87 S6        30.02R
WHITEMAN AFB   CLEAR     68  68 100 S5        29.99S
WARRENSBURG    CLEAR     68  64  88 SE3       29.99S
OSAGE BEACH    CLEAR     68  65  90 SE5       30.03R

$$
MOZ051-052-059>065-231200-
...EAST CENTRAL MISSOURI...

CITY           SKY/WX    TMP DP  RH WIND       PRES   REMARKS
ST LOUIS INTL  CLEAR     71  66  84 CALM      30.04R
SPIRIT OF STL  CLEAR     66  65  96 CALM      30.02R
ST CHARLES     CLEAR     67  65  93 E6        30.02R

$$
MOZ072>076-082>087-097>100-106>115-231200-
...SOUTH CENTRAL AND SOUTHEAST MISSOURI...

CITY           SKY/WX    TMP DP  RH WIND       PRES   REMARKS
CAPE GIRARDEAU FOG       64  64 100 CALM      30.02R VSB 1/4
FARMINGTON     CLEAR     64  63  96 CALM      30.06R
POPLAR BLUFF   CLEAR     66  65  96 CALM      30.01R
WEST PLAINS    CLEAR     65  63  93 CALM      30.06R

$$



USA.gov is the U.S. government's official web portal to all federal, state and local government web resources and services.